Regional Weather Roundup
Issued by NWS Mobile, AL

Home | Current Version | Previous Version | Text Only | Print | Product List | Glossary On
Versions: 1 2 3 4 5 6 7 8 9 10 11 12 13 14 15 16 17 18 19 20 21 22 23 24 25 26 27
000
ASUS44 KMOB 222012
RWRMOB
REGIONAL WEATHER ROUNDUP
NATIONAL WEATHER SERVICE MOBILE AL
300 PM CDT MON MAY 22 2017

NOTE: "FAIR" INDICATES FEW OR NO CLOUDS BELOW 12,000 FEET WITH NO
      SIGNIFICANT WEATHER AND/OR OBSTRUCTIONS TO VISIBILITY.

  * THESE STATIONS ARE PART OF THE UNIVERSITY OF SOUTH ALABAMA
    MESONET AND ARE NOT UNDER NWS OR FAA QUALITY CONTROL.

ALZ061>064-222100-
COASTAL ALABAMA

CITY           SKY/WX    TMP DP  RH WIND       PRES   REMARKS
MOBILE REG APT CLOUDY    79  68  69 W5        30.00F
BROOKLEY FIELD CLOUDY    80  69  69 CALM      29.99F
USA CAMPUS*      N/A     77  70  78 CALM      29.99S
DOG RIVER*       N/A     79  68  69 S6        30.73F


CITY           SKY/WX    TMP DP  RH WIND       PRES   REMARKS
GULF SHORES    PTSUNNY   79  70  74 S10       29.97F

$$

ALZ051>060-222100-
INTERIOR SOUTHWEST AND SOUTH CENTRAL ALABAMA

CITY           SKY/WX    TMP DP  RH WIND       PRES   REMARKS
GREENVILLE     CLOUDY    82  65  56 SW7       29.97F
EVERGREEN      CLOUDY    84  68  58 S6        29.97F
ATMORE*          N/A     81  68  65 S5        29.99F
ANDALUSIA/OPP  PTSUNNY   88  67  49 MISG      29.96F
ANDALUSIA*       N/A     82  68  61 W9        29.98F
FLORALA APT    PTSUNNY   84  66  54 VRB5      29.98F
FLORALA*         N/A     84  70  61 CALM      30.65F

$$

FLZ001>006-222100-
WESTERN FLORIDA PANHANDLE

CITY           SKY/WX    TMP DP  RH WIND       PRES   REMARKS
PENSACOLA      CLOUDY    83  70  64 S10       29.97F
NAS PENSACOLA  CLOUDY    81  70  69 S8        29.97F
MILTON         CLOUDY    82  70  66 SW7       29.97F
WHTNG S FIELD  CLOUDY    85  72  65 CALM      29.97F


CITY           SKY/WX    TMP DP  RH WIND       PRES   REMARKS
JAY*             N/A     81  68  65 SW7       29.97F
DUKE FIELD     PTSUNNY   83  69  62 S7        29.95F
CRESTVIEW      CLOUDY    84  68  58 S5        29.98F
VALPARAISO     MOSUNNY   80  70  70 S7        29.97F
DESTIN         CLOUDY    84  78  82 S6        29.96F HX  95

$$

MSZ076-079-222100-
INTERIOR SOUTHEAST MISSISSIPPI

CITY           SKY/WX    TMP DP  RH WIND       PRES   REMARKS
LEAKESVILLE*   NOT AVBL
AGRICOLA*        N/A     75  70  83 CALM      29.99S

$$

MARINE OBSERVATIONS

STATION/POSITION TIME  TEMP    WIND        PRES    WAVE
                       AIR SEA DIR/SP/G            HT/PER
                 (UTC) (F)     (DEG/KT/KT) (MB)    (FT/S)
PASCAGOULA       1948   77     180/  4/  6 1015.8F
GRAND BAY        1830   78     110/  4     1017.0S
KATRINA CUT      1900   78     140/  3     1016.3
CEDAR POINT      1900   79     140/  4     1016.3
E DAUPHIN ISLAND 1900   77     150/  6/  7 1015.7F
MIDDLE BAY LIGHT 1900   78     150/  4     1015.6
USCG MOBILE BAY  1948   79 78  180/  3/  4 1015.9F
STATE DOCKS      1948   79 78              1015.2F
MEAHER PARK      1930   79     190/  3     1015.6F
FORT MORGAN      1948   77     170/  6/  7   N/A
12 S ORANGE BCH  1850   77 81  170/  2/  4 1016.0S   2/ 7
PENSACOLA BAY    1948   85 80              1015.3F
64 S DAUPHIN ISL 1950   78 78  170/  2/  4 1015.8F   2/ 8
67 S FORT MORGAN 1930   76     130/  4     1015.6F

$$

SELECTED LOCATIONS ACROSS THE REGION

CITY           SKY/WX    TMP DP  RH WIND       PRES   REMARKS
NEW ORLEANS    LGT RAIN  77  68  73 NE5       29.98F
GULFPORT       CLOUDY    77  67  71 SW5       29.99F
PASCAGOULA AP  CLOUDY    78  68  71 SW3       29.99F
PASCAGOULA*    NOT AVBL
HATTIESBURG    CLOUDY    72  67  84 NW5       30.02F
LAUREL         NOT AVBL
MERIDIAN       LGT RAIN  75  71  87 SW5       29.99F
JACKSON        LGT RAIN  70  67  90 S5        30.02F
MONTGOMERY     CLOUDY    81  70  69 N8        29.96F
TROY           PTSUNNY   82  69  64 SW8       29.97F
ASHFORD*         N/A     82  68  61 W9        29.98F
DOTHAN         MOSUNNY   85  68  56 SW5       30.00F
PANAMA CITY    MOSUNNY   83  69  62 S9        29.97F

$$





USA.gov is the U.S. government's official web portal to all federal, state and local government web resources and services.